Location: ???????
(55.3754°N, 39.3545°E)
Time: 22:32:59
(UTC+00:00)

Cosmos 1980 - Pass Details

Date: 14 April 2026
Orbit: 839 x 844 km, 71.0° (Epoch: 13 May)

Event Time Altitude Azimuth Distance (km) Brightness Sun altitude
Rises 18:15:42 0° 194° (SSW) 3,383 6.6 -14.3°
Reaches altitude 10° 18:18:10 10° 190° (S) 2,452 5.8 -14.5°
Maximum altitude 18:23:38 54° 115° (ESE) 1,020 3.8 -15.1°
Drops below altitude 10° 18:29:07 10° 40° (NE) 2,466 6.2 -15.6°
Sets 18:31:36 0° 36° (NE) 3,405 7.0 -15.9°
